Regional Weather Roundup
Issued by NWS

Home | Current Version | Previous Version | Text Only | Print | Product List | Glossary Off
Versions: 1 2 3 4 5 6 7 8 9 10 11 12 13 14 15 16 17 18 19 20 21 22 23 24 25 26 27 28 29 30 31 32 33 34 35 36 37 38 39 40 41 42 43 44 45 46 47 48 49 50

850
ASUS43 KFSD 300710
RWRSD

WEATHER ROUNDUP FOR SOUTH DAKOTA
NATIONAL WEATHER SERVICE SIOUX FALLS SD
200 AM CDT SAT JUL 30 2016

NOTE: "FAIR" INDICATES FEW OR NO CLOUDS BELOW 12,000 FEET WITH NO
SIGNIFICANT WEATHER AND/OR OBSTRUCTIONS TO VISIBILITY.


SDZ001>005-009-010-012>017-300800-
NORTHWEST AND NORTH CENTRAL SOUTH DAKOTA

CITY           SKY/WX    TMP DP  RH WIND       PRES   REMARKS
BUFFALO          N/A     67  56  67 S3        29.91F
FAITH            N/A     64  59  83 SE13      29.97F
MOBRIDGE       MOCLDY    68  57  68 SE6       29.95S
$$

SDZ012>016-024>037-041>051-057-063-072>074-300800-
SOUTHWEST AND SOUTH CENTRAL SOUTH DAKOTA

CITY           SKY/WX    TMP DP  RH WIND       PRES   REMARKS
RAPID CTY ARPT CLEAR     56  53  90 E3        29.99F
PIERRE         CLEAR     68  55  63 SE14      29.96F
CUSTER         CLEAR     54  50  86 W3        30.14F
ELLSWORTH AFB  CLEAR     65  57  77 CALM      29.98F
PHILIP         CLEAR     67  63  87 E7        29.97S
PINE RIDGE     CLEAR     56  56 100 E5        30.02F
WINNER         CLOUDY    67  56  67 SE12      30.01F
$$

SDZ004>011-016>023-039-040-300800-
NORTHEAST SOUTH DAKOTA

CITY           SKY/WX    TMP DP  RH WIND       PRES   REMARKS
ABERDEEN       CLOUDY    66  58  75 SE6       30.01R
WATERTOWN      CLEAR     63  56  78 SE8       30.04F
BROOKINGS      CLEAR     60  56  86 SE7       30.04F
SISSETON         N/A     65  59  81 S6        30.01S
$$

SDZ017-020-022-023-036>040-048>070-300800-
SOUTHEAST SOUTH DAKOTA

CITY           SKY/WX    TMP DP  RH WIND       PRES   REMARKS
SIOUX FALLS    CLEAR     59  55  87 CALM      30.05S
HURON          CLEAR     64  55  72 SE9       30.01F
CHAMBERLAIN    CLEAR     63  58  81 SE7       30.02S
MITCHELL       CLEAR     64  57  78 SE8       30.03S
YANKTON        CLEAR     63  57  82 CALM      30.04R
$$

ABBREVIATIONS USED IN REMARKS
   TC - TEMPERATURE IN CELSIUS
  WCI - WIND CHILL INDEX
   HX - HEAT INDEX
  VSB - VISIBILITY





USA.gov is the U.S. government's official web portal to all federal, state and local government web resources and services.